Home > Weather > Chiclayo > Past weeks

Flag for Peru Past Weather in Chiclayo, Lambayeque, Peru — Yesterday and Last 2 Weeks

Now
72 °F

Sunny.


Feels Like: 74 °F
Forecast: 63 / 74 °F
Wind: 21 mph from South

Location: Chiclayo Airport

Current Time: Jun 28, 2016 at 5:40:22 PM

Latest Report: Jun 28, 2016 at 5:00 PM


Visibility: 10 mi

Pressure: 29.83 "Hg

Humidity: 73%

Dew Point: 63 °F

Location of ChiclayoLocation

Past Weather in Chiclayo — Graph

°F

Chiclayo Temperature Yesterday

Maximum temperature yesterday: 77 °F (at 2:00 PM)
Minimum temperature yesterday: 64 °F (at 12:00 AM)
Average temperature yesterday: 69 °F

High & Low Weather Summary for the Past Weeks

 TemperatureHumidityPressure
High84 °F (Jun 17, 5:00 PM)100% (Jun 13, 10:00 PM)30.04 "Hg (Jun 13, 10:00 PM)
Low63 °F (Jun 14, 2:00 AM)51% (Jun 17, 5:00 PM)29.83 "Hg (Jun 26, 3:00 PM)
Average69 °F79%29.94 "Hg
* Reported Jun 13 4:00 PM — Jun 28 4:00 PM, Chiclayo, Weather by CustomWeather, © 2016

Note: Actual official high and low records may vary slightly from our data, if they occured in-between our weather recording intervals... More about our weather records

Advertising

Chiclayo Weather History for the Previous 24 Hours

Scroll right to see more
 ConditionsComfort  
Time TempWeatherWind HumidityBarometerVisibility
4:00 PM
Tue, Jun 28
73 °FSunny.21 mph69%29.83 "Hg10 mi
3:00 PM75 °FSunny.18 mph65%29.83 "Hg10 mi
2:00 PM75 °FPassing clouds.18 mph65%29.86 "HgN/A
1:00 PM75 °FSunny.16 mph65%29.89 "Hg10 mi
12:00 PM73 °FSunny.13 mph69%29.89 "Hg10 mi
11:00 AM72 °FPassing clouds.14 mph73%29.92 "HgN/A
10:00 AM72 °FPassing clouds.14 mph73%29.92 "HgN/A
9:00 AM68 °FSunny.15 mph83%29.95 "Hg10 mi
8:00 AM66 °FSunny.12 mph88%29.92 "Hg10 mi
7:00 AM63 °FPassing clouds.9 mph100%29.92 "HgN/A
6:00 AM63 °FPassing clouds.10 mph100%29.89 "HgN/A
5:00 AM64 °FClear.8 mph94%29.89 "Hg10 mi
4:00 AM64 °FClear.9 mph94%29.86 "Hg10 mi
3:00 AM64 °FClear.12 mph94%29.86 "Hg10 mi
2:00 AM64 °FPassing clouds.14 mph100%29.89 "HgN/A
1:00 AM64 °FPassing clouds.15 mph100%29.89 "HgN/A
12:00 AM64 °FPassing clouds.15 mph100%29.89 "HgN/A
11:00 PM
Mon, Jun 27
64 °FClear.16 mph94%29.89 "Hg10 mi
10:00 PM64 °FClear.15 mph94%29.89 "Hg10 mi
9:00 PM66 °FClear.14 mph88%29.86 "Hg10 mi
8:00 PM66 °FClear.14 mph88%29.86 "Hg10 mi
7:00 PM68 °FClear.15 mph83%29.86 "Hg10 mi
6:00 PM70 °FSunny.20 mph78%29.83 "Hg10 mi
5:00 PM72 °FSunny.22 mph73%29.83 "Hg10 mi
Weather by CustomWeather, © 2016

See weather overviewHow to use our weather pages